Location: Unspecified
(42.3650°N, 71.1030°W)
Time: 11:22:56
(UTC+00:00)

Tiros 1 - Pass Details

Date: 28 June 2024
Orbit: 624 x 656 km, 48.4° (Epoch: 20 July)

Event Time Altitude Azimuth Distance (km) Brightness Sun altitude
Rises 02:31:03 0° 233° (SW) 2,893 10.5 -17.2°
Reaches altitude 10° 02:33:22 10° 231° (SW) 1,987 9.6 -17.4°
Maximum altitude 02:37:53 68° 149° (SSE) 671 6.9 -17.9°
Drops below altitude 10° 02:42:27 10° 66° (ENE) 1,997 9.6 -18.3°
Sets 02:44:47 0° 64° (ENE) 2,909 10.5 -18.5°
